owner,sensor,date,latitude,longitude,vertical_datum,wind_speed,wind_to_direction,wind_speed_of_gust,qcFlag 
ADCP,ioos:station:wmo:42361:1,2009-04-01T00:30:00Z,27.5500,-92.4900,122.0,1.0,50.0,99.0,'11111222,11111222,11144222' 
ADCP,ioos:station:wmo:42361:1,2009-04-01T01:30:00Z,27.5500,-92.4900,122.0,0.0,0.0,99.0,'11111222,11111222,11144222' 
ADCP,ioos:station:wmo:42361:1,2009-04-01T02:30:00Z,27.5500,-92.4900,122.0,0.5,50.0,99.0,'11111222,11111222,11144222' 
ADCP,ioos:station:wmo:42361:1,2009-04-01T03:30:00Z,27.5500,-92.4900,122.0,0.0,0.0,99.0,'11111222,11111222,11144222' 
ADCP,ioos:station:wmo:42361:1,2009-04-01T04:30:00Z,27.5500,-92.4900,122.0,0.5,30.0,99.0,'11111222,11111222,11144222' 
ADCP,ioos:station:wmo:42361:1,2009-04-01T05:30:00Z,27.5500,-92.4900,122.0,1.1,10.0,99.0,'11111222,11111222,11144222' 
ADCP,ioos:station:wmo:42361:1,2009-04-01T06:30:00Z,27.5500,-92.4900,122.0,6.1,110.0,99.0,'11111222,11111222,11144222' 
ADCP,ioos:station:wmo:42361:1,2009-04-01T07:30:00Z,27.5500,-92.4900,122.0,11.2,20.0,99.0,'11111222,11111222,11144222' 
ADCP,ioos:station:wmo:42361:1,2009-04-01T08:30:00Z,27.5500,-92.4900,122.0,10.5,20.0,99.0,'11111222,11111222,11144222' 
ADCP,ioos:station:wmo:42361:1,2009-04-01T09:30:00Z,27.5500,-92.4900,122.0,9.3,30.0,99.0,'11111222,11111222,11144222' 
ADCP,ioos:station:wmo:42361:1,2009-04-01T10:30:00Z,27.5500,-92.4900,122.0,3.5,110.0,99.0,'11111222,11111222,11144222' 
ADCP,ioos:station:wmo:42361:1,2009-04-01T11:30:00Z,27.5500,-92.4900,122.0,7.9,80.0,99.0,'11111222,11111222,11144222' 
ADCP,ioos:station:wmo:42361:1,2009-04-01T12:30:00Z,27.5500,-92.4900,122.0,12.5,20.0,99.0,'11111222,11111222,11144222' 
ADCP,ioos:station:wmo:42361:1,2009-04-01T13:30:00Z,27.5500,-92.4900,122.0,14.9,40.0,99.0,'11111222,11111222,11144222' 
ADCP,ioos:station:wmo:42361:1,2009-04-01T14:30:00Z,27.5500,-92.4900,122.0,17.4,60.0,99.0,'11111222,11111222,11144222' 
ADCP,ioos:station:wmo:42361:1,2009-04-01T15:30:00Z,27.5500,-92.4900,122.0,15.1,60.0,99.0,'11111222,11111222,11144222' 
ADCP,ioos:station:wmo:42361:1,2009-04-01T16:30:00Z,27.5500,-92.4900,122.0,10.0,50.0,99.0,'11111222,11111222,11144222' 
ADCP,ioos:station:wmo:42361:1,2009-04-01T17:30:00Z,27.5500,-92.4900,122.0,11.6,40.0,99.0,'11111222,11111222,11144222' 
ADCP,ioos:station:wmo:42361:1,2009-04-01T18:30:00Z,27.5500,-92.4900,122.0,10.1,50.0,99.0,'11111222,11111222,11144222' 
ADCP,ioos:station:wmo:42361:1,2009-04-01T19:30:00Z,27.5500,-92.4900,122.0,9.7,60.0,99.0,'11111222,11111222,11144222' 
ADCP,ioos:station:wmo:42361:1,2009-04-01T20:30:00Z,27.5500,-92.4900,122.0,15.9,70.0,99.0,'11111222,11111222,11144222' 
ADCP,ioos:station:wmo:42361:1,2009-04-01T21:30:00Z,27.5500,-92.4900,122.0,14.9,70.0,99.0,'11111222,11111222,11144222' 
ADCP,ioos:station:wmo:42361:1,2009-04-01T22:30:00Z,27.5500,-92.4900,122.0,14.8,70.0,99.0,'11111222,11111222,11144222' 
ADCP,ioos:station:wmo:42361:1,2009-04-01T23:30:00Z,27.5500,-92.4900,122.0,14.9,70.0,99.0,'11111222,11111222,11144222' 
ADCP,ioos:station:wmo:42361:1,2009-04-02T00:30:00Z,27.5500,-92.4900,122.0,17.3,80.0,99.0,'11111222,11111222,11144222' 
ADCP,ioos:station:wmo:42361:1,2009-04-02T01:30:00Z,27.5500,-92.4900,122.0,17.1,80.0,99.0,'11111222,11111222,11144222' 
ADCP,ioos:station:wmo:42361:1,2009-04-02T02:30:00Z,27.5500,-92.4900,122.0,18.6,90.0,99.0,'11111222,11111222,11144222' 
ADCP,ioos:station:wmo:42361:1,2009-04-02T03:30:00Z,27.5500,-92.4900,122.0,19.4,90.0,99.0,'11111222,11111222,11144222' 
ADCP,ioos:station:wmo:42361:1,2009-04-02T04:30:00Z,27.5500,-92.4900,122.0,18.5,100.0,99.0,'11111222,11111222,11144222' 
ADCP,ioos:station:wmo:42361:1,2009-04-02T05:30:00Z,27.5500,-92.4900,122.0,18.3,120.0,99.0,'11111222,11111222,11144222' 
ADCP,ioos:station:wmo:42361:1,2009-04-02T06:30:00Z,27.5500,-92.4900,122.0,18.3,130.0,99.0,'11111222,11111222,11144222' 
ADCP,ioos:station:wmo:42361:1,2009-04-02T07:30:00Z,27.5500,-92.4900,122.0,14.5,130.0,99.0,'11111222,11111222,11144222' 
ADCP,ioos:station:wmo:42361:1,2009-04-02T08:30:00Z,27.5500,-92.4900,122.0,15.1,140.0,99.0,'11111222,11111222,11144222' 
ADCP,ioos:station:wmo:42361:1,2009-04-02T09:30:00Z,27.5500,-92.4900,122.0,13.6,140.0,99.0,'11111222,11111222,11144222' 
ADCP,ioos:station:wmo:42361:1,2009-04-02T10:30:00Z,27.5500,-92.4900,122.0,6.9,180.0,99.0,'11111222,11111222,11144222' 
ADCP,ioos:station:wmo:42361:1,2009-04-02T11:30:00Z,27.5500,-92.4900,122.0,5.7,140.0,99.0,'11111222,11111222,11144222' 
ADCP,ioos:station:wmo:42361:1,2009-04-02T12:30:00Z,27.5500,-92.4900,122.0,7.7,140.0,99.0,'11111222,11111222,11144222' 
ADCP,ioos:station:wmo:42361:1,2009-04-02T13:30:00Z,27.5500,-92.4900,122.0,9.4,140.0,99.0,'11111222,11111222,11144222' 
ADCP,ioos:station:wmo:42361:1,2009-04-02T14:30:00Z,27.5500,-92.4900,122.0,12.6,170.0,99.0,'11111222,11111222,11144222' 
ADCP,ioos:station:wmo:42361:1,2009-04-02T15:30:00Z,27.5500,-92.4900,122.0,15.5,200.0,99.0,'11111222,11111222,11144222' 
ADCP,ioos:station:wmo:42361:1,2009-04-02T16:30:00Z,27.5500,-92.4900,122.0,20.7,200.0,99.0,'11111222,11111222,11144222' 
ADCP,ioos:station:wmo:42361:1,2009-04-02T17:30:00Z,27.5500,-92.4900,122.0,23.0,210.0,99.0,'11111222,11111222,11144222' 
ADCP,ioos:station:wmo:42361:1,2009-04-02T18:30:00Z,27.5500,-92.4900,122.0,22.8,230.0,99.0,'11111222,11111222,11144222' 
ADCP,ioos:station:wmo:42361:1,2009-04-02T19:30:00Z,27.5500,-92.4900,122.0,22.8,240.0,99.0,'11111222,11111222,11144222' 
ADCP,ioos:station:wmo:42361:1,2009-04-02T20:30:00Z,27.5500,-92.4900,122.0,22.5,250.0,99.0,'11111222,11111222,11144222' 
ADCP,ioos:station:wmo:42361:1,2009-04-02T21:30:00Z,27.5500,-92.4900,122.0,13.4,290.0,99.0,'11111222,11111222,11144222' 
ADCP,ioos:station:wmo:42361:1,2009-04-02T22:30:00Z,27.5500,-92.4900,122.0,7.4,320.0,99.0,'11111222,11111222,11144222' 
ADCP,ioos:station:wmo:42361:1,2009-04-02T23:30:00Z,27.5500,-92.4900,122.0,7.9,320.0,99.0,'11111222,11111222,11144222' 
ADCP,ioos:station:wmo:42361:1,2009-04-03T00:30:00Z,27.5500,-92.4900,122.0,7.2,330.0,99.0,'11111222,11111222,11144222' 
ADCP,ioos:station:wmo:42361:1,2009-04-03T01:30:00Z,27.5500,-92.4900,122.0,6.9,330.0,99.0,'11111222,11111222,11144222' 
ADCP,ioos:station:wmo:42361:1,2009-04-03T02:30:00Z,27.5500,-92.4900,122.0,6.8,340.0,99.0,'11111222,11111222,11144222' 
ADCP,ioos:station:wmo:42361:1,2009-04-03T03:30:00Z,27.5500,-92.4900,122.0,7.0,320.0,99.0,'11111222,11111222,11144222' 
ADCP,ioos:station:wmo:42361:1,2009-04-03T04:30:00Z,27.5500,-92.4900,122.0,5.6,230.0,99.0,'11111222,11111222,11144222' 
ADCP,ioos:station:wmo:42361:1,2009-04-03T05:30:00Z,27.5500,-92.4900,122.0,4.3,80.0,99.0,'11111222,11111222,11144222' 
ADCP,ioos:station:wmo:42361:1,2009-04-03T06:30:00Z,27.5500,-92.4900,122.0,2.4,40.0,99.0,'11111222,11111222,11144222' 
ADCP,ioos:station:wmo:42361:1,2009-04-03T07:30:00Z,27.5500,-92.4900,122.0,1.8,40.0,99.0,'11111222,11111222,11144222' 
ADCP,ioos:station:wmo:42361:1,2009-04-03T08:30:00Z,27.5500,-92.4900,122.0,1.5,40.0,99.0,'11111222,11111222,11144222' 
ADCP,ioos:station:wmo:42361:1,2009-04-03T09:30:00Z,27.5500,-92.4900,122.0,0.7,20.0,99.0,'11111222,11111222,11144222' 
ADCP,ioos:station:wmo:42361:1,2009-04-03T10:30:00Z,27.5500,-92.4900,122.0,0.2,10.0,99.0,'11111222,11111222,11144222' 
ADCP,ioos:station:wmo:42361:1,2009-04-03T11:30:00Z,27.5500,-92.4900,122.0,0.5,30.0,99.0,'11111222,11111222,11144222' 
ADCP,ioos:station:wmo:42361:1,2009-04-03T12:30:00Z,27.5500,-92.4900,122.0,0.9,60.0,99.0,'11111222,11111222,11144222' 
ADCP,ioos:station:wmo:42361:1,2009-04-03T13:30:00Z,27.5500,-92.4900,122.0,0.6,40.0,99.0,'11111222,11111222,11144222' 
ADCP,ioos:station:wmo:42361:1,2009-04-03T14:30:00Z,27.5500,-92.4900,122.0,0.3,20.0,99.0,'11111222,11111222,11144222' 
ADCP,ioos:station:wmo:42361:1,2009-04-03T15:30:00Z,27.5500,-92.4900,122.0,0.3,-9999.0,99.0,'11111222,99999999,11144222' 
ADCP,ioos:station:wmo:42361:1,2009-04-03T16:30:00Z,27.5500,-92.4900,122.0,0.1,-9999.0,99.0,'11111222,99999999,11144222' 
ADCP,ioos:station:wmo:42361:1,2009-04-03T17:30:00Z,27.5500,-92.4900,122.0,0.7,10.0,99.0,'11111222,11111222,11144222' 
ADCP,ioos:station:wmo:42361:1,2009-04-03T18:30:00Z,27.5500,-92.4900,122.0,0.0,0.0,99.0,'11111222,11111222,11144222' 
ADCP,ioos:station:wmo:42361:1,2009-04-03T19:30:00Z,27.5500,-92.4900,122.0,0.2,-9999.0,99.0,'11111222,99999999,11144222' 
ADCP,ioos:station:wmo:42361:1,2009-04-03T20:30:00Z,27.5500,-92.4900,122.0,1.0,20.0,99.0,'11111222,11111222,11144222' 
ADCP,ioos:station:wmo:42361:1,2009-04-03T21:30:00Z,27.5500,-92.4900,122.0,1.2,50.0,99.0,'11111222,11111222,11144222' 
ADCP,ioos:station:wmo:42361:1,2009-04-03T22:30:00Z,27.5500,-92.4900,122.0,0.5,20.0,99.0,'11111222,11111222,11144222' 
ADCP,ioos:station:wmo:42361:1,2009-04-03T23:30:00Z,27.5500,-92.4900,122.0,2.8,70.0,99.0,'11111222,11111222,11144222' 
ADCP,ioos:station:wmo:42361:1,2009-04-04T00:30:00Z,27.5500,-92.4900,122.0,3.9,90.0,99.0,'11111222,11111222,11144222' 
ADCP,ioos:station:wmo:42361:1,2009-04-04T01:30:00Z,27.5500,-92.4900,122.0,5.3,90.0,99.0,'11111222,11111222,11144222' 
ADCP,ioos:station:wmo:42361:1,2009-04-04T02:30:00Z,27.5500,-92.4900,122.0,7.1,90.0,99.0,'11111222,11111222,11144222' 
ADCP,ioos:station:wmo:42361:1,2009-04-04T03:30:00Z,27.5500,-92.4900,122.0,8.8,90.0,99.0,'11111222,11111222,11144222' 
ADCP,ioos:station:wmo:42361:1,2009-04-04T04:30:00Z,27.5500,-92.4900,122.0,9.6,100.0,99.0,'11111222,11111222,11144222' 
ADCP,ioos:station:wmo:42361:1,2009-04-04T05:30:00Z,27.5500,-92.4900,122.0,10.3,90.0,99.0,'11111222,11111222,11144222' 
ADCP,ioos:station:wmo:42361:1,2009-04-04T06:30:00Z,27.5500,-92.4900,122.0,10.0,100.0,99.0,'11111222,11111222,11144222' 
ADCP,ioos:station:wmo:42361:1,2009-04-04T07:30:00Z,27.5500,-92.4900,122.0,11.1,110.0,99.0,'11111222,11111222,11144222' 
ADCP,ioos:station:wmo:42361:1,2009-04-04T08:30:00Z,27.5500,-92.4900,122.0,11.2,110.0,99.0,'11111222,11111222,11144222' 
ADCP,ioos:station:wmo:42361:1,2009-04-04T09:30:00Z,27.5500,-92.4900,122.0,13.9,100.0,99.0,'11111222,11111222,11144222' 
ADCP,ioos:station:wmo:42361:1,2009-04-04T10:30:00Z,27.5500,-92.4900,122.0,15.4,100.0,99.0,'11111222,11111222,11144222' 
ADCP,ioos:station:wmo:42361:1,2009-04-04T11:30:00Z,27.5500,-92.4900,122.0,15.6,100.0,99.0,'11111222,11111222,11144222' 
ADCP,ioos:station:wmo:42361:1,2009-04-04T12:30:00Z,27.5500,-92.4900,122.0,14.3,110.0,99.0,'11111222,11111222,11144222' 
ADCP,ioos:station:wmo:42361:1,2009-04-04T13:30:00Z,27.5500,-92.4900,122.0,15.1,120.0,99.0,'11111222,11111222,11144222' 
ADCP,ioos:station:wmo:42361:1,2009-04-04T14:30:00Z,27.5500,-92.4900,122.0,15.4,110.0,99.0,'11111222,11111222,11144222' 
ADCP,ioos:station:wmo:42361:1,2009-04-04T15:30:00Z,27.5500,-92.4900,122.0,17.5,120.0,99.0,'11111222,11111222,11144222' 
ADCP,ioos:station:wmo:42361:1,2009-04-04T16:30:00Z,27.5500,-92.4900,122.0,18.3,130.0,99.0,'11111222,11111222,11144222' 
ADCP,ioos:station:wmo:42361:1,2009-04-04T17:30:00Z,27.5500,-92.4900,122.0,18.5,120.0,99.0,'11111222,11111222,11144222' 
ADCP,ioos:station:wmo:42361:1,2009-04-04T18:30:00Z,27.5500,-92.4900,122.0,17.5,120.0,99.0,'11111222,11111222,11144222' 
ADCP,ioos:station:wmo:42361:1,2009-04-04T19:30:00Z,27.5500,-92.4900,122.0,18.6,110.0,99.0,'11111222,11111222,11144222' 
ADCP,ioos:station:wmo:42361:1,2009-04-04T20:30:00Z,27.5500,-92.4900,122.0,18.4,110.0,99.0,'11111222,11111222,11144222' 
ADCP,ioos:station:wmo:42361:1,2009-04-04T21:30:00Z,27.5500,-92.4900,122.0,12.3,120.0,99.0,'11111222,11111222,11144222' 
ADCP,ioos:station:wmo:42361:1,2009-04-04T22:30:00Z,27.5500,-92.4900,122.0,10.3,120.0,99.0,'11111222,11111222,11144222' 
ADCP,ioos:station:wmo:42361:1,2009-04-04T23:30:00Z,27.5500,-92.4900,122.0,11.2,110.0,99.0,'11111222,11111222,11144222' 
ADCP,ioos:station:wmo:42361:1,2009-04-05T00:30:00Z,27.5500,-92.4900,122.0,10.7,110.0,99.0,'11111222,11111222,11144222' 
ADCP,ioos:station:wmo:42361:1,2009-04-05T01:30:00Z,27.5500,-92.4900,122.0,9.6,110.0,99.0,'11111222,11111222,11144222' 
ADCP,ioos:station:wmo:42361:1,2009-04-05T02:30:00Z,27.5500,-92.4900,122.0,6.4,130.0,99.0,'11111222,11111222,11144222' 
ADCP,ioos:station:wmo:42361:1,2009-04-05T03:30:00Z,27.5500,-92.4900,122.0,7.2,170.0,99.0,'11111222,11111222,11144222' 
ADCP,ioos:station:wmo:42361:1,2009-04-05T04:30:00Z,27.5500,-92.4900,122.0,7.2,220.0,99.0,'11111222,11111222,11144222' 
ADCP,ioos:station:wmo:42361:1,2009-04-05T05:30:00Z,27.5500,-92.4900,122.0,8.5,210.0,99.0,'11111222,11111222,11144222' 
ADCP,ioos:station:wmo:42361:1,2009-04-05T06:30:00Z,27.5500,-92.4900,122.0,8.3,200.0,99.0,'11111222,11111222,11144222' 
ADCP,ioos:station:wmo:42361:1,2009-04-05T07:30:00Z,27.5500,-92.4900,122.0,9.6,200.0,99.0,'11111222,11111222,11144222' 
ADCP,ioos:station:wmo:42361:1,2009-04-05T08:30:00Z,27.5500,-92.4900,122.0,9.2,200.0,99.0,'11111222,11111222,11144222' 
ADCP,ioos:station:wmo:42361:1,2009-04-05T09:30:00Z,27.5500,-92.4900,122.0,10.4,200.0,99.0,'11111222,11111222,11144222' 
ADCP,ioos:station:wmo:42361:1,2009-04-05T10:30:00Z,27.5500,-92.4900,122.0,9.3,220.0,99.0,'11111222,11111222,11144222' 
ADCP,ioos:station:wmo:42361:1,2009-04-05T11:30:00Z,27.5500,-92.4900,122.0,8.1,240.0,99.0,'11111222,11111222,11144222' 
ADCP,ioos:station:wmo:42361:1,2009-04-05T12:30:00Z,27.5500,-92.4900,122.0,6.5,220.0,99.0,'11111222,11111222,11144222' 
ADCP,ioos:station:wmo:42361:1,2009-04-05T13:30:00Z,27.5500,-92.4900,122.0,6.3,190.0,99.0,'11111222,11111222,11144222' 
ADCP,ioos:station:wmo:42361:1,2009-04-05T14:30:00Z,27.5500,-92.4900,122.0,7.5,210.0,99.0,'11111222,11111222,11144222' 
ADCP,ioos:station:wmo:42361:1,2009-04-05T15:30:00Z,27.5500,-92.4900,122.0,6.3,220.0,99.0,'11111222,11111222,11144222' 
ADCP,ioos:station:wmo:42361:1,2009-04-05T16:30:00Z,27.5500,-92.4900,122.0,5.7,190.0,99.0,'11111222,11111222,11144222' 
ADCP,ioos:station:wmo:42361:1,2009-04-05T17:30:00Z,27.5500,-92.4900,122.0,3.2,190.0,99.0,'11111222,11111222,11144222' 
ADCP,ioos:station:wmo:42361:1,2009-04-05T18:30:00Z,27.5500,-92.4900,122.0,0.1,10.0,99.0,'11111222,11111222,11144222' 
ADCP,ioos:station:wmo:42361:1,2009-04-05T19:30:00Z,27.5500,-92.4900,122.0,0.0,0.0,99.0,'11111222,11111222,11144222' 
ADCP,ioos:station:wmo:42361:1,2009-04-05T20:30:00Z,27.5500,-92.4900,122.0,0.0,0.0,99.0,'11111222,11111222,11144222' 
ADCP,ioos:station:wmo:42361:1,2009-04-05T21:30:00Z,27.5500,-92.4900,122.0,0.0,0.0,99.0,'11111222,11111222,11144222' 
ADCP,ioos:station:wmo:42361:1,2009-04-05T22:30:00Z,27.5500,-92.4900,122.0,0.0,0.0,99.0,'11111222,11111222,11144222' 
ADCP,ioos:station:wmo:42361:1,2009-04-05T23:30:00Z,27.5500,-92.4900,122.0,0.1,10.0,99.0,'11111222,11111222,11144222' 
ADCP,ioos:station:wmo:42361:1,2009-04-06T00:30:00Z,27.5500,-92.4900,122.0,2.8,260.0,99.0,'11111222,11111222,11144222' 
ADCP,ioos:station:wmo:42361:1,2009-04-06T01:30:00Z,27.5500,-92.4900,122.0,3.8,250.0,99.0,'11111222,11111222,11144222' 
ADCP,ioos:station:wmo:42361:1,2009-04-06T02:30:00Z,27.5500,-92.4900,122.0,1.0,50.0,99.0,'11111222,11111222,11144222' 
ADCP,ioos:station:wmo:42361:1,2009-04-06T03:30:00Z,27.5500,-92.4900,122.0,1.3,40.0,99.0,'11111222,11111222,11144222' 
ADCP,ioos:station:wmo:42361:1,2009-04-06T04:30:00Z,27.5500,-92.4900,122.0,2.2,50.0,99.0,'11111222,11111222,11144222' 
ADCP,ioos:station:wmo:42361:1,2009-04-06T05:30:00Z,27.5500,-92.4900,122.0,3.3,70.0,99.0,'11111222,11111222,11144222' 
ADCP,ioos:station:wmo:42361:1,2009-04-06T06:30:00Z,27.5500,-92.4900,122.0,3.7,90.0,99.0,'11111222,11111222,11144222' 
ADCP,ioos:station:wmo:42361:1,2009-04-06T07:30:00Z,27.5500,-92.4900,122.0,3.9,90.0,99.0,'11111222,11111222,11144222' 
ADCP,ioos:station:wmo:42361:1,2009-04-06T08:30:00Z,27.5500,-92.4900,122.0,3.8,100.0,99.0,'11111222,11111222,11144222' 
ADCP,ioos:station:wmo:42361:1,2009-04-06T09:30:00Z,27.5500,-92.4900,122.0,4.3,100.0,99.0,'11111222,11111222,11144222' 
ADCP,ioos:station:wmo:42361:1,2009-04-06T10:30:00Z,27.5500,-92.4900,122.0,4.1,100.0,99.0,'11111222,11111222,11144222' 
ADCP,ioos:station:wmo:42361:1,2009-04-06T11:30:00Z,27.5500,-92.4900,122.0,4.2,120.0,99.0,'11111222,11111222,11144222' 
ADCP,ioos:station:wmo:42361:1,2009-04-06T12:30:00Z,27.5500,-92.4900,122.0,4.0,130.0,99.0,'11111222,11111222,11144222' 
ADCP,ioos:station:wmo:42361:1,2009-04-06T13:30:00Z,27.5500,-92.4900,122.0,4.2,140.0,99.0,'11111222,11111222,11144222' 
ADCP,ioos:station:wmo:42361:1,2009-04-06T14:30:00Z,27.5500,-92.4900,122.0,4.2,140.0,99.0,'11111222,11111222,11144222' 
ADCP,ioos:station:wmo:42361:1,2009-04-06T15:30:00Z,27.5500,-92.4900,122.0,3.5,130.0,99.0,'11111222,11111222,11144222' 
ADCP,ioos:station:wmo:42361:1,2009-04-06T16:30:00Z,27.5500,-92.4900,122.0,99.0,-9999.0,99.0,'11144222,99999999,11144222' 
ADCP,ioos:station:wmo:42361:1,2009-04-06T17:30:00Z,27.5500,-92.4900,122.0,99.0,-9999.0,99.0,'11144222,99999999,11144222' 
ADCP,ioos:station:wmo:42361:1,2009-04-06T18:30:00Z,27.5500,-92.4900,122.0,99.0,-9999.0,99.0,'11144222,99999999,11144222' 
ADCP,ioos:station:wmo:42361:1,2009-04-06T19:30:00Z,27.5500,-92.4900,122.0,99.0,-9999.0,99.0,'11144222,99999999,11144222' 
ADCP,ioos:station:wmo:42361:1,2009-04-06T20:30:00Z,27.5500,-92.4900,122.0,99.0,-9999.0,99.0,'11144222,99999999,11144222' 
ADCP,ioos:station:wmo:42361:1,2009-04-06T21:30:00Z,27.5500,-92.4900,122.0,99.0,-9999.0,99.0,'11144222,99999999,11144222' 
ADCP,ioos:station:wmo:42361:1,2009-04-06T22:30:00Z,27.5500,-92.4900,122.0,99.0,-9999.0,99.0,'11144222,99999999,11144222' 
ADCP,ioos:station:wmo:42361:1,2009-04-06T23:30:00Z,27.5500,-92.4900,122.0,99.0,-9999.0,99.0,'11144222,99999999,11144222' 
ADCP,ioos:station:wmo:42361:1,2009-04-07T00:30:00Z,27.5500,-92.4900,122.0,99.0,-9999.0,99.0,'11144222,99999999,11144222' 
ADCP,ioos:station:wmo:42361:1,2009-04-07T01:30:00Z,27.5500,-92.4900,122.0,99.0,-9999.0,99.0,'11144222,99999999,11144222' 
ADCP,ioos:station:wmo:42361:1,2009-04-07T02:30:00Z,27.5500,-92.4900,122.0,99.0,-9999.0,99.0,'11144222,99999999,11144222' 
ADCP,ioos:station:wmo:42361:1,2009-04-07T03:30:00Z,27.5500,-92.4900,122.0,99.0,-9999.0,99.0,'11144222,99999999,11144222' 
ADCP,ioos:station:wmo:42361:1,2009-04-07T04:30:00Z,27.5500,-92.4900,122.0,99.0,-9999.0,99.0,'11144222,99999999,11144222' 
ADCP,ioos:station:wmo:42361:1,2009-04-07T05:30:00Z,27.5500,-92.4900,122.0,99.0,-9999.0,99.0,'11144222,99999999,11144222' 
ADCP,ioos:station:wmo:42361:1,2009-04-07T06:30:00Z,27.5500,-92.4900,122.0,99.0,-9999.0,99.0,'11144222,99999999,11144222' 
ADCP,ioos:station:wmo:42361:1,2009-04-07T07:30:00Z,27.5500,-92.4900,122.0,99.0,-9999.0,99.0,'11144222,99999999,11144222' 
ADCP,ioos:station:wmo:42361:1,2009-04-07T08:30:00Z,27.5500,-92.4900,122.0,99.0,-9999.0,99.0,'11144222,99999999,11144222' 
ADCP,ioos:station:wmo:42361:1,2009-04-07T09:30:00Z,27.5500,-92.4900,122.0,99.0,-9999.0,99.0,'11144222,99999999,11144222' 
ADCP,ioos:station:wmo:42361:1,2009-04-07T10:30:00Z,27.5500,-92.4900,122.0,99.0,-9999.0,99.0,'11144222,99999999,11144222' 
ADCP,ioos:station:wmo:42361:1,2009-04-07T11:30:00Z,27.5500,-92.4900,122.0,99.0,-9999.0,99.0,'11144222,99999999,11144222' 
ADCP,ioos:station:wmo:42361:1,2009-04-07T12:30:00Z,27.5500,-92.4900,122.0,99.0,-9999.0,99.0,'11144222,99999999,11144222' 
ADCP,ioos:station:wmo:42361:1,2009-04-07T13:30:00Z,27.5500,-92.4900,122.0,99.0,-9999.0,99.0,'11144222,99999999,11144222' 
ADCP,ioos:station:wmo:42361:1,2009-04-07T14:30:00Z,27.5500,-92.4900,122.0,99.0,-9999.0,99.0,'11144222,99999999,11144222' 
ADCP,ioos:station:wmo:42361:1,2009-04-07T15:30:00Z,27.5500,-92.4900,122.0,99.0,-9999.0,99.0,'11144222,99999999,11144222' 
ADCP,ioos:station:wmo:42361:1,2009-04-07T16:30:00Z,27.5500,-92.4900,122.0,99.0,-9999.0,99.0,'11144222,99999999,11144222' 
ADCP,ioos:station:wmo:42361:1,2009-04-07T17:30:00Z,27.5500,-92.4900,122.0,99.0,-9999.0,99.0,'11144222,99999999,11144222' 
ADCP,ioos:station:wmo:42361:1,2009-04-07T18:30:00Z,27.5500,-92.4900,122.0,99.0,-9999.0,99.0,'11144222,99999999,11144222' 
ADCP,ioos:station:wmo:42361:1,2009-04-07T19:30:00Z,27.5500,-92.4900,122.0,99.0,-9999.0,99.0,'11144222,99999999,11144222' 
ADCP,ioos:station:wmo:42361:1,2009-04-07T20:30:00Z,27.5500,-92.4900,122.0,99.0,-9999.0,99.0,'11144222,99999999,11144222' 
ADCP,ioos:station:wmo:42361:1,2009-04-07T21:30:00Z,27.5500,-92.4900,122.0,99.0,-9999.0,99.0,'11144222,99999999,11144222' 
ADCP,ioos:station:wmo:42361:1,2009-04-07T22:30:00Z,27.5500,-92.4900,122.0,99.0,-9999.0,99.0,'11144222,99999999,11144222' 
ADCP,ioos:station:wmo:42361:1,2009-04-07T23:30:00Z,27.5500,-92.4900,122.0,99.0,-9999.0,99.0,'11144222,99999999,11144222' 
ADCP,ioos:station:wmo:42361:1,2009-04-08T00:30:00Z,27.5500,-92.4900,122.0,99.0,-9999.0,99.0,'11144222,99999999,11144222' 
ADCP,ioos:station:wmo:42361:1,2009-04-08T01:30:00Z,27.5500,-92.4900,122.0,99.0,-9999.0,99.0,'11144222,99999999,11144222' 
ADCP,ioos:station:wmo:42361:1,2009-04-08T02:30:00Z,27.5500,-92.4900,122.0,99.0,-9999.0,99.0,'11144222,99999999,11144222' 
ADCP,ioos:station:wmo:42361:1,2009-04-08T03:30:00Z,27.5500,-92.4900,122.0,99.0,-9999.0,99.0,'11144222,99999999,11144222' 
ADCP,ioos:station:wmo:42361:1,2009-04-08T04:30:00Z,27.5500,-92.4900,122.0,99.0,-9999.0,99.0,'11144222,99999999,11144222' 
ADCP,ioos:station:wmo:42361:1,2009-04-08T05:30:00Z,27.5500,-92.4900,122.0,99.0,-9999.0,99.0,'11144222,99999999,11144222' 
ADCP,ioos:station:wmo:42361:1,2009-04-08T06:30:00Z,27.5500,-92.4900,122.0,99.0,-9999.0,99.0,'11144222,99999999,11144222' 
ADCP,ioos:station:wmo:42361:1,2009-04-08T07:30:00Z,27.5500,-92.4900,122.0,99.0,-9999.0,99.0,'11144222,99999999,11144222' 
ADCP,ioos:station:wmo:42361:1,2009-04-08T08:30:00Z,27.5500,-92.4900,122.0,99.0,-9999.0,99.0,'11144222,99999999,11144222' 
ADCP,ioos:station:wmo:42361:1,2009-04-08T09:30:00Z,27.5500,-92.4900,122.0,99.0,-9999.0,99.0,'11144222,99999999,11144222' 
ADCP,ioos:station:wmo:42361:1,2009-04-08T10:30:00Z,27.5500,-92.4900,122.0,99.0,-9999.0,99.0,'11144222,99999999,11144222' 
ADCP,ioos:station:wmo:42361:1,2009-04-08T11:30:00Z,27.5500,-92.4900,122.0,99.0,-9999.0,99.0,'11144222,99999999,11144222' 
ADCP,ioos:station:wmo:42361:1,2009-04-08T12:30:00Z,27.5500,-92.4900,122.0,99.0,-9999.0,99.0,'11144222,99999999,11144222' 
ADCP,ioos:station:wmo:42361:1,2009-04-08T13:30:00Z,27.5500,-92.4900,122.0,99.0,-9999.0,99.0,'11144222,99999999,11144222' 
ADCP,ioos:station:wmo:42361:1,2009-04-08T14:30:00Z,27.5500,-92.4900,122.0,99.0,-9999.0,99.0,'11144222,99999999,11144222' 
ADCP,ioos:station:wmo:42361:1,2009-04-08T15:30:00Z,27.5500,-92.4900,122.0,99.0,-9999.0,99.0,'11144222,99999999,11144222' 
ADCP,ioos:station:wmo:42361:1,2009-04-08T16:30:00Z,27.5500,-92.4900,122.0,99.0,-9999.0,99.0,'11144222,99999999,11144222' 
ADCP,ioos:station:wmo:42361:1,2009-04-08T17:30:00Z,27.5500,-92.4900,122.0,99.0,-9999.0,99.0,'11144222,99999999,11144222' 
ADCP,ioos:station:wmo:42361:1,2009-04-08T18:30:00Z,27.5500,-92.4900,122.0,99.0,-9999.0,99.0,'11144222,99999999,11144222' 
ADCP,ioos:station:wmo:42361:1,2009-04-08T19:30:00Z,27.5500,-92.4900,122.0,99.0,-9999.0,99.0,'11144222,99999999,11144222' 
ADCP,ioos:station:wmo:42361:1,2009-04-08T20:30:00Z,27.5500,-92.4900,122.0,99.0,-9999.0,99.0,'11144222,99999999,11144222' 
ADCP,ioos:station:wmo:42361:1,2009-04-08T21:30:00Z,27.5500,-92.4900,122.0,99.0,-9999.0,99.0,'11144222,99999999,11144222' 
ADCP,ioos:station:wmo:42361:1,2009-04-08T22:30:00Z,27.5500,-92.4900,122.0,99.0,-9999.0,99.0,'11144222,99999999,11144222' 
ADCP,ioos:station:wmo:42361:1,2009-04-08T23:30:00Z,27.5500,-92.4900,122.0,99.0,-9999.0,99.0,'11144222,99999999,11144222' 
ADCP,ioos:station:wmo:42361:1,2009-04-09T00:30:00Z,27.5500,-92.4900,122.0,99.0,-9999.0,99.0,'11144222,99999999,11144222' 
ADCP,ioos:station:wmo:42361:1,2009-04-09T01:30:00Z,27.5500,-92.4900,122.0,99.0,-9999.0,99.0,'11144222,99999999,11144222' 
ADCP,ioos:station:wmo:42361:1,2009-04-09T02:30:00Z,27.5500,-92.4900,122.0,99.0,-9999.0,99.0,'11144222,99999999,11144222' 
ADCP,ioos:station:wmo:42361:1,2009-04-09T03:30:00Z,27.5500,-92.4900,122.0,99.0,-9999.0,99.0,'11144222,99999999,11144222' 
ADCP,ioos:station:wmo:42361:1,2009-04-09T04:30:00Z,27.5500,-92.4900,122.0,99.0,-9999.0,99.0,'11144222,99999999,11144222' 
ADCP,ioos:station:wmo:42361:1,2009-04-09T05:30:00Z,27.5500,-92.4900,122.0,99.0,-9999.0,99.0,'11144222,99999999,11144222' 
ADCP,ioos:station:wmo:42361:1,2009-04-09T06:30:00Z,27.5500,-92.4900,122.0,99.0,-9999.0,99.0,'11144222,99999999,11144222' 